Regional Weather Roundup
Issued by NWS

Home | Current Version | Previous Version | Graphics & Text | Print | Product List | Glossary On
Versions: 1 2 3 4 5 6 7 8 9 10 11 12 13 14 15 16 17 18 19 20 21 22 23 24 25 26 27 28 29 30 31 32 33 34 35 36 37 38 39 40 41 42 43 44 45 46 47 48 49 50
000
ASUS45 KBOU 271407
RWRCO

WEATHER ROUNDUP FOR COLORADO
NATIONAL WEATHER SERVICE DENVER/BOULDER CO
800 AM MDT WED MAY 27 2015

NOTE: "FAIR" INDICATES FEW OR NO CLOUDS BELOW 12000 FEET WITH NO
SIGNIFICANT WEATHER AND/OR OBSTRUCTIONS TO VISIBILITY.

COZ001>005-013-030-031-271500-
...NORTHWEST COLORADO...

CITY           SKY/WX    TMP DP  RH WIND       PRES   REMARKS
CRAIG          MOSUNNY   53  43  68 CALM      30.17S
HAYDEN         PTSUNNY   48  43  81 E8        30.18S
MEEKER         SUNNY     48  44  86 CALM      30.19S
MOUNT WERNER   NOT AVBL
STEAMBOAT SPGS CLOUDY    45  44  96 E6        30.20S
WALDEN         MOSUNNY   46  37  71 S8        30.21S
$$

COZ006>008-011-271500-
...WEST CENTRAL VALLEYS...

CITY           SKY/WX    TMP DP  RH WIND       PRES   REMARKS
GRAND JUNCTION SUNNY     53  48  83 SE7       30.14R
MONTROSE       SUNNY     51  45  79 NW3       30.19S
EAGLE          MOSUNNY   48  43  81 CALM      30.23R
RIFLE          MOSUNNY   49  44  83 CALM      30.19R
DELTA          SUNNY     55  45  69 MISG      30.17S
NUCLA          SUNNY     52  41  66 CALM      30.21S
$$

COZ017>023-064>068-271500-
...SOUTHWEST COLORADO...

CITY           SKY/WX    TMP DP  RH WIND       PRES   REMARKS
DURANGO        MOSUNNY   50  42  74 CALM      30.23R
CORTEZ         MOSUNNY   51  42  71 CALM      30.18S
PAGOSA SPRINGS SUNNY     47  39  71 CALM      30.29R
TELLURIDE      MOSUNNY   42  36  80 SE3       30.33S
WOLF CREEK PAS NOT AVBL
$$

COZ009-010-012-014-032>034-037-058>063-271500-
...CENTRAL COLORADO...

CITY           SKY/WX    TMP DP  RH WIND       PRES   REMARKS
ASPEN          NOT AVBL
BUENA VISTA    MOSUNNY   48  36  62 CALM      30.26S
COPPER MTN     PTSUNNY   37  28  70 SW17G24   30.38F
BERTHOUD PASS  PTSUNNY   30  23  74 W24G33    30.38R WCI  16
COTTONWOOD PAS MOSUNNY   48  34  57 NW3       30.33R
GUNNISON       SUNNY     45  37  76 NE5       30.31S
KREMMLING      CLOUDY    50  41  71 E6        30.22S
LEADVILLE      CLOUDY    38  32  79 CALM      30.30S
MONARCH PASS   FOG       32  30  93 MISG      30.51R VSB<1/4
SALIDA         MOSUNNY   56  36  45 SW10      30.31F
SUNLIGHT       MOSUNNY   37  36  93 CALM      30.37R
WILKERSON PASS MOSUNNY   34  32  93 SW10G20   30.38R WCI  26
$$

COZ069>075-271500-
...SAN LUIS VALLEY/SANGRE DE CRISTO MOUNTAINS...

CITY           SKY/WX    TMP DP  RH WIND       PRES   REMARKS
ALAMOSA        SUNNY     50  41  71 E6        30.27S
LA VETA PASS   MOSUNNY  N/A N/A N/A MISG      30.36R
SAGUACHE       MOSUNNY   46  39  76 CALM      30.29S
$$

COZ035-036-038>040-271500-
...NORTHERN COLORADO FRONT RANGE...

CITY           SKY/WX    TMP DP  RH WIND       PRES   REMARKS
DENVER INTL AP MOSUNNY   58  44  60 SW9       30.08R
DMNS CITY PARK   N/A     58  42  56 SW3       30.08R
AURORA         MOSUNNY   57  42  55 SW6       30.10R
FRONT RANGE AP MOSUNNY   59  46  63 W7        30.09S
ERIE MUNI ARPT   N/A     56  49  76 CALM      30.07S
BOULDER MUN AP MOSUNNY   55  46  71 CALM      30.07S
CENTENNIAL     MOSUNNY   59  41  51 SW9       30.10R
BROOMFIELD     NOT AVBL
FORT COLLINS   SUNNY     55  50  82 CALM      30.08S
LONGMONT       MOSUNNY   58  49  71 CALM      30.08S
$$

COZ041-046-047-076>085-087-088-271500-
...PIKES PEAK/PALMER DIVIDE AND SOUTHERN FOOTHILLS...

CITY           SKY/WX    TMP DP  RH WIND       PRES   REMARKS
COLO. SPRINGS  MOSUNNY   53  46  77 E6        30.16S
A. F. ACADEMY  SUNNY     51  46  84 S2        30.17R
ELLICOTT       SUNNY    N/A N/A N/A SW9       30.15R
FALCON         SUNNY     52  45  75 S6        30.19R
FORT CARSON    SUNNY     53  46  75 VRB1      30.14R
LIMON          SUNNY     57  48  72 S9        30.12S
MONUMENT HILL  SUNNY     55  41  58 E9        30.17R
TRINIDAD       MOSUNNY   57  47  69 SW10      30.15S
$$

COZ042>045-048>051-090-091-271500-
...NORTHEAST COLORADO...

CITY           SKY/WX    TMP DP  RH WIND       PRES   REMARKS
GREELEY ARPT   SUNNY     54  48  82 CALM      30.07R
AKRON          CLOUDY    59  52  77 S7        30.08R
BURLINGTON     MOSUNNY   60  53  77 S17       30.09R
WRAY           PTSUNNY   58  54  86 SE9       30.09R
STERLING       MOSUNNY   54  52  94 W3        30.06R
HOLYOKE        PTSUNNY   59  52  77 SE10      30.08S
FORT MORGAN    MOSUNNY   56  51  85 CALM      30.07S
$$

COZ086-089-092>099-271500-
...SOUTHEAST COLORADO...

CITY           SKY/WX    TMP DP  RH WIND       PRES   REMARKS
PUEBLO         SUNNY     55  49  80 W7        30.11R
LA JUNTA       SUNNY     59  52  77 CALM      30.10R
LAMAR          SUNNY     61  56  83 SW3       30.07R
SPRINGFIELD      N/A     63  53  70 S15       30.12S
$$


USA.gov is the U.S. government's official web portal to all federal, state and local government web resources and services.